| time (UTC) | temp C | wind direction | speed KPH | gust KPH | rain 1hr cm | rain 24hr cm | rain mn cm | humidity % | barometer mb |
| 20260901203101 | 18 | 304 | 0.0 | 3.2 | 0.00 | 0.00 | 0.00 | 61 | 1020.6 |
| 20260901201551 | 18 | 296 | 0.0 | 1.6 | 0.00 | 0.00 | 0.00 | 62 | 1020.6 |
| 20260901200049 | 18 | 296 | 0.0 | 3.2 | 0.00 | 0.00 | 0.00 | 61 | 1020.5 |
| 20260901194548 | 18 | 193 | 0.0 | 0.0 | 0.00 | 0.00 | 0.00 | 60 | 1020.4 |
| 20260901193057 | 19 | 193 | 0.0 | 1.6 | 0.00 | 0.00 | 0.00 | 58 | 1020.4 |
| 20260901191549 | 19 | 322 | 0.0 | 3.2 | 0.00 | 0.00 | 0.00 | 58 | 1020.3 |
| 20260901190046 | 20 | 321 | 0.0 | 3.2 | 0.00 | 0.00 | 0.00 | 57 | 1020.0 |
| 20260901184548 | 20 | 321 | 0.0 | 3.2 | 0.00 | 0.00 | 0.00 | 55 | 1019.9 |
| 20260901183045 | 21 | 297 | 0.0 | 1.6 | 0.00 | 0.00 | 0.00 | 53 | 1019.8 |
| 20260901181544 | 21 | 297 | 0.0 | 1.6 | 0.00 | 0.00 | 0.00 | 51 | 1019.6 |
| 20260901180043 | 22 | 296 | 0.0 | 0.0 | 0.00 | 0.00 | 0.00 | 48 | 1019.3 |
| 20260901174542 | 23 | 296 | 0.0 | 0.0 | 0.00 | 0.00 | 0.00 | 46 | 1019.0 |
| 20260901173043 | 23 | 296 | 0.0 | 1.6 | 0.00 | 0.00 | 0.00 | 43 | 1019.0 |
| 20260901171542 | 24 | 296 | 0.0 | 1.6 | 0.00 | 0.00 | 0.00 | 42 | 1018.9 |
| 20260901170041 | 25 | 338 | 0.0 | 4.8 | 0.00 | 0.00 | 0.00 | 40 | 1018.9 |
| 20260901164541 | 25 | 338 | 0.0 | 6.4 | 0.00 | 0.00 | 0.00 | 39 | 1018.9 |
| 20260901163041 | 25 | 324 | 0.0 | 12.9 | 0.00 | 0.00 | 0.00 | 38 | 1018.9 |
| 20260901161545 | 26 | 320 | 1.6 | 12.9 | 0.00 | 0.00 | 0.00 | 37 | 1018.9 |
| 20260901160050 | 25 | 349 | 1.6 | 6.4 | 0.00 | 0.00 | 0.00 | 38 | 1018.9 |
| 20260901154538 | 26 | 335 | 1.6 | 8.0 | 0.00 | 0.00 | 0.00 | 37 | 1018.8 |
| 20260901153040 | 26 | 335 | 0.0 | 12.9 | 0.00 | 0.00 | 0.00 | 36 | 1018.9 |
| 20260901151537 | 26 | 341 | 1.6 | 9.7 | 0.00 | 0.00 | 0.00 | 35 | 1018.8 |
| 20260901150037 | 26 | 346 | 0.0 | 14.5 | 0.00 | 0.00 | 0.00 | 34 | 1018.9 |
| 20260901144538 | 27 | 302 | 3.2 | 16.1 | 0.00 | 0.00 | 0.00 | 33 | 1018.9 |
| 20260901143036 | 27 | 348 | 4.8 | 16.1 | 0.00 | 0.00 | 0.00 | 33 | 1018.9 |
| 20260901141537 | 28 | 329 | 1.6 | 12.9 | 0.00 | 0.00 | 0.00 | 31 | 1018.9 |
| 20260901140034 | 27 | 321 | 4.8 | 12.9 | 0.00 | 0.00 | 0.00 | 33 | 1018.8 |
| 20260901134550 | 27 | 317 | 1.6 | 9.7 | 0.00 | 0.00 | 0.00 | 36 | 1019.0 |
| 20260901133032 | 27 | 336 | 1.6 | 16.1 | 0.00 | 0.00 | 0.00 | 35 | 1019.0 |
| 20260901131533 | 26 | 346 | 1.6 | 12.9 | 0.00 | 0.00 | 0.00 | 37 | 1019.2 |
| 20260901130032 | 26 | 293 | 1.6 | 12.9 | 0.00 | 0.00 | 0.00 | 39 | 1019.3 |
| 20260901124531 | 27 | 329 | 4.8 | 16.1 | 0.00 | 0.00 | 0.00 | 36 | 1019.3 |
| 20260901123025 | 26 | 349 | 3.2 | 20.9 | 0.00 | 0.00 | 0.00 | 38 | 1019.4 |
| 20260901121524 | 26 | 332 | 0.0 | 6.4 | 0.00 | 0.00 | 0.00 | 40 | 1019.4 |
| 20260901120024 | 25 | 323 | 1.6 | 11.3 | 0.00 | 0.00 | 0.00 | 40 | 1019.5 |
| 20260901114526 | 25 | 132 | 0.0 | 19.3 | 0.00 | 0.00 | 0.00 | 40 | 1019.6 |
| 20260901113020 | 25 | 321 | 3.2 | 16.1 | 0.00 | 0.00 | 0.00 | 41 | 1019.7 |
| 20260901111519 | 25 | 325 | 3.2 | 14.5 | 0.00 | 0.00 | 0.00 | 41 | 1019.7 |
| 20260901110018 | 25 | 334 | 3.2 | 19.3 | 0.00 | 0.00 | 0.00 | 42 | 1019.8 |
| 20260901104518 | 25 | 253 | 3.2 | 20.9 | 0.00 | 0.00 | 0.00 | 42 | 1019.9 |
| 20260901103017 | 25 | 333 | 4.8 | 16.1 | 0.00 | 0.00 | 0.00 | 42 | 1019.9 |
| 20260901101514 | 25 | 302 | 1.6 | 9.7 | 0.00 | 0.00 | 0.00 | 44 | 1019.9 |
| 20260901100014 | 25 | 291 | 1.6 | 8.0 | 0.00 | 0.00 | 0.00 | 46 | 1019.9 |
| 20260901094513 | 24 | 141 | 0.0 | 9.7 | 0.00 | 0.00 | 0.00 | 47 | 1020.0 |
| 20260901093019 | 25 | 331 | 0.0 | 4.8 | 0.00 | 0.00 | 0.00 | 46 | 1020.0 |
| 20260901091511 | 25 | 325 | 0.0 | 6.4 | 0.00 | 0.00 | 0.00 | 48 | 1020.0 |
| 20260901090013 | 23 | 342 | 0.0 | 14.5 | 0.00 | 0.00 | 0.00 | 51 | 1020.0 |
| 20260901084524 | 23 | 322 | 0.0 | 14.5 | 0.00 | 0.00 | 0.00 | 50 | 1020.1 |
| 20260901083008 | 23 | 315 | 0.0 | 3.2 | 0.00 | 0.00 | 0.00 | 51 | 1020.2 |
| 20260901081506 | 24 | 299 | 3.2 | 16.1 | 0.00 | 0.00 | 0.00 | 47 | 1020.1 |
| 20260901080006 | 24 | 313 | 0.0 | 8.0 | 0.00 | 0.00 | 0.00 | 50 | 1020.1 |
| 20260901074606 | 24 | 63 | 0.0 | 6.4 | 0.00 | 0.00 | 0.00 | 51 | 1020.0 |
| 20260901073103 | 23 | 328 | 3.2 | 8.0 | 0.00 | 0.00 | 0.00 | 52 | 1020.0 |
| 20260901071554 | 23 | 194 | 0.0 | 6.4 | 0.00 | 0.00 | 0.00 | 55 | 1019.9 |
| 20260901070058 | 22 | 326 | 0.0 | 4.8 | 0.00 | 0.00 | 0.00 | 59 | 1019.8 |
| 20260901064546 | 21 | 315 | 1.6 | 19.3 | 0.00 | 0.00 | 0.00 | 60 | 1019.9 |
| 20260901063046 | 21 | 319 | 0.0 | 4.8 | 0.00 | 0.00 | 0.00 | 64 | 1019.8 |
| 20260901061537 | 19 | 279 | 0.0 | 1.6 | 0.00 | 0.00 | 0.00 | 72 | 1019.9 |
| 20260901060034 | 18 | 281 | 0.0 | 1.6 | 0.00 | 0.00 | 0.00 | 76 | 1019.8 |
| 20260901054529 | 17 | 281 | 0.0 | 1.6 | 0.00 | 0.00 | 0.00 | 79 | 1019.9 |
| 20260901053033 | 16 | 281 | 0.0 | 1.6 | 0.00 | 0.00 | 0.00 | 80 | 1019.9 |
| 20260901051524 | 16 | 238 | 0.0 | 1.6 | 0.00 | 0.00 | 0.00 | 80 | 1019.8 |
| 20260901050023 | 16 | 236 | 0.0 | 1.6 | 0.00 | 0.00 | 0.00 | 80 | 1019.8 |
| 20260901044522 | 16 | 234 | 0.0 | 3.2 | 0.00 | 0.00 | 0.00 | 82 | 1019.5 |
| 20260901043022 | 15 | 236 | 0.0 | 0.0 | 0.00 | 0.00 | 0.00 | 84 | 1019.4 |
| 20260901041517 | 15 | 236 | 0.0 | 1.6 | 0.00 | 0.00 | 0.00 | 85 | 1019.3 |
| 20260901040017 | 15 | 236 | 0.0 | 1.6 | 0.00 | 0.00 | 0.00 | 86 | 1019.4 |
| 20260901034515 | 14 | 235 | 0.0 | 6.4 | 0.00 | 0.00 | 0.00 | 89 | 1019.2 |
| 20260901033013 | 13 | 238 | 0.0 | 1.6 | 0.00 | 0.00 | 0.00 | 87 | 1019.1 |
| 20260901031512 | 13 | 238 | 0.0 | 0.0 | 0.00 | 0.00 | 0.00 | 87 | 1018.8 |
| 20260901030015 | 15 | 238 | 0.0 | 0.0 | 0.00 | 0.00 | 0.00 | 87 | 1018.8 |
| 20260901024506 | 15 | 238 | 0.0 | 0.0 | 0.00 | 0.00 | 0.00 | 86 | 1018.6 |
| 20260901023003 | 15 | 238 | 0.0 | 1.6 | 0.00 | 0.00 | 0.00 | 86 | 1018.6 |
| 20260901021502 | 15 | 238 | 0.0 | 1.6 | 0.00 | 0.00 | 0.00 | 87 | 1018.7 |
| 20260901020002 | 15 | 317 | 0.0 | 0.0 | 0.00 | 0.00 | 0.00 | 88 | 1018.5 |
| 20260901014501 | 15 | 317 | 0.0 | 1.6 | 0.00 | 0.00 | 0.00 | 88 | 1018.6 |
| 20260901013108 | 15 | 317 | 0.0 | 0.0 | 0.00 | 0.00 | 0.00 | 88 | 1018.5 |
| 20260901011557 | 15 | 317 | 0.0 | 0.0 | 0.00 | 0.00 | 0.00 | 87 | 1018.3 |
| 20260901010056 | 16 | 317 | 0.0 | 0.0 | 0.00 | 0.00 | 0.00 | 87 | 1018.2 |
| 20260901004557 | 16 | 317 | 0.0 | 0.0 | 0.00 | 0.00 | 0.00 | 87 | 1018.2 |
| 20260901003108 | 15 | 317 | 0.0 | 0.0 | 0.00 | 0.00 | 0.00 | 88 | 1018.1 |
| 20260901001607 | 15 | 318 | 0.0 | 0.0 | 0.00 | 0.00 | 0.00 | 89 | 1018.2 |
| 20260901000057 | 16 | 318 | 0.0 | 0.0 | 0.00 | 0.00 | 0.00 | 89 | 1018.2 |
| 20260831234602 | 16 | 318 | 0.0 | 0.0 | 0.00 | 0.00 | 0.00 | 88 | 1018.1 |
| 20260831233051 | 16 | 318 | 0.0 | 0.0 | 0.00 | 0.00 | 0.00 | 88 | 1018.0 |
| 20260831231546 | 16 | 318 | 0.0 | 0.0 | 0.00 | 0.00 | 0.00 | 88 | 1018.1 |
| 20260831230044 | 17 | 318 | 0.0 | 0.0 | 0.00 | 0.00 | 0.00 | 87 | 1018.1 |
| 20260831224541 | 17 | 318 | 0.0 | 0.0 | 0.00 | 0.00 | 0.00 | 86 | 1018.1 |
| 20260831223038 | 17 | 318 | 0.0 | 0.0 | 0.00 | 0.00 | 0.00 | 85 | 1018.2 |
| 20260831221541 | 18 | 317 | 0.0 | 1.6 | 0.00 | 0.00 | 0.00 | 84 | 1018.2 |
| 20260831220038 | 18 | 317 | 0.0 | 0.0 | 0.00 | 0.00 | 0.00 | 86 | 1018.2 |
| 20260831214535 | 18 | 317 | 0.0 | 0.0 | 0.00 | 0.00 | 0.00 | 86 | 1018.2 |
| 20260831213038 | 18 | 317 | 0.0 | 0.0 | 0.00 | 0.00 | 0.00 | 85 | 1018.2 |
| 20260831211531 | 18 | 317 | 0.0 | 1.6 | 0.00 | 0.00 | 0.00 | 84 | 1018.1 |
| 20260831210030 | 19 | 317 | 0.0 | 1.6 | 0.00 | 0.00 | 0.00 | 82 | 1017.9 |
| 20260831204526 | 20 | 317 | 0.0 | 0.0 | 0.00 | 0.00 | 0.00 | 79 | 1017.5 |